Probability
0 0 0 0 0 0 0 0 0 0 0 0 0 0 0 0 0 0 0 0 0 0 0 0 0 0 0 0 0 0 0 0 0 0 0 0 0 0 0 0 0 0 0
0 0 0 0 0 0 0 0 0 0 0 0 0 0 0 0 0 0 0 0 0 0 0 0 0 0 0 0 0 0 0 0 0 0 0 0 0 0 0 0 0 0 0
0 0 0 0 0 0 0 0 0 0 0 0 0 0 0 0 0 0 0 0 0 0 0 0 0 0 0 0 0 0 0 0 0 0 0 0 0 0 0 0 0 0 0
0 0 0 0 0 0 0 0 0 0 0 0 0 0 0 0 0 0 0 0 0 0 0 0 0 0 0 0 0 0 0 0 0 0 0 0 0 0 0 0 0 0 0
0 0 0 0 0 0 0 0 0 0 0 0 0 0 0 0 0 0 0 0 0 0 0 0 0 0 0 0 0 0 0 0 0 0 0 0 0 0 0 0 0 0 0
0 0 0 0 0 0 0 0 0 0 0 0 0 0 0 0 0 0 0 0 0 0 0 0 0 0 0 0 0 0 0 0 0 0 0 0 0 0 0 0 0 0 0
0 0 0 0 0 0 0 0 0 0 0 0 0 0 0 0 0 0 0 0 0 0 0 0 0 0 0 0 0 0 0 0 0 0 0 0 0 0 0 0 0 0 0
0 0 0 0 0 0 0 0 0 0 0 0 0 0 0 0 0 0 0 0 0 0 0 0 0 0 0 0 0 0 0 0 0 0 0 0 0 0 0 0 0 0 0
0 0 0 0 0 0 0 0 0 0 0 0 0 0 0 0 0 0 0 0 0 0 0 0 0 0 0 0 0 0 0 0 0 0 0 0 0 0 0 0 0 0 0
0 0 0 0 0 0 0 0 0 0 0 0 0 0 0 0 0 0 0 0 0 0 0 0 0 0 0 0 0 0 0 0 0 0 0 0 0 0 0 0 0 0 0
0 0 0 0 0 0 0 0 0 0 0 0 0 0 0 0 0 0 0 0 0 0 0 0 0 0 0 0 0 0 0 0 0 0 0 0 0 0 0 0 0 0 0
0 0 0 0 0 0 0 0 0 0 0 0 0 0 0 0 0 0 0 0 0 0 0 0 0 0 0 0 0 0 0 0 0 0 0 0 0 0 0 0 0 0 0
0 0 0 0 0 0 0 0 0 0 0 0 0 0 0 0 0 0 0 0 0 0 0 0 0 0 0 0 0 0 0 0 0 0 0 0 0 0 0 0 0 0 0
0 0 0 0 0 0 0 0 0 0 0 0 0 0 0 0 0 0 0 0 0 0 0 0 0 0 0 0 0 0 0 0 0 0 0 0 0 0 0 0 0 0 0
0 0 0 0 0 0 0 0 0 0 0 0 0 0 0 0 0 0 0 0 0 0 0 0 0 0 0 0 0 0 0 0 0 0 0 0 0 0 0 0 0 0 0
0 0 0 0 0 0 0 0 0 0 0 0 0 0 0 0 0 0 0 0 0 0 0 0 0 0 0 0 0 0 0 0 0 0 0 0 0 0 0 0 0 0 0
0 0 0 0 0 0 0 0 0 0 0 0 0 0 0 0 0 0 0 0 0 0 0 0 0 0 0 0 0 0 0 0 0 0 0 0 0 0 0 0 0 0 0
0 0 0 0 0 0 0 0 0 0 0 0 0 0 0 0 0 0 0 0 0 0 0 0 0 0 0 0 0 0 0 0 0 0 0 0 0 0 0 0 0 0 0
0 0 0 0 0 0 0 0 0 0 0 0 0 0 0 0 0 0 0 0 0 0 0 0 0 0 0 0 0 0 0 0 0 0 0 0 0 0 0 0 0 0 0
0 0 0 0 0 0 0 0 0 0 0 0 0 0 0 0 0 0 0 0 0 0 0 0 0 0 0 0 0 0 0 0 0 0 0 0 0 0 0 0 0 0 0
0 0 0 0 0 0 0 0 0 0 0 0 0 0 0 0 0 0 0 0 0 0 0 0 0 0 0 0 0 0 0 0 0 0 0 0 0 0 0 0 0 0 0
0 0 0 0 0 0 0 0 0 0 0 0 0 0 0 0 0 0 0 0 0 0 0 0 0 0 0 0 0 0 0 0 0 0 0 0 0 0 0 0 0 0 0
0 0 0 0 0 0 0 0 0 0 0 0 0 0 0 0 0 0 0 0 0 0 0 0 0 0 0 0 0 0 0 0 0 0 0 0 0 0 0 0 0 0 0
0 0 0 0 0 0 0 0 0 0 0 0 0 0 0 0 0 0 0 0 0 0 0 0 0 0 0 0 0 0 0 0 0 0 0 0 0 0 0 0 0 0 0
0 0 0 0 0 0 0 0 0 0 0 0 0 0 0 0 0 0 0 0 0 0 0 0 0 0 0 0 0 0 0 0 0 0 0 0 0 0 0 0 0 0 0
0 0 0 0 0 0 0 0 0 0 0 0 0 0 0 0 0 0 0 0 0 0 0 0 0 0 0 0 0 0 0 0 0 0 0 0 0 0 0 0 0 0 0
Wind_Speed
4 3 3 3 3 3 3 2 2 1 1 1 2 2 3 3 3 3 3 8 9 8 8 7 6 5 5 4 3 2 2 2 3 4 5 5 6 6 7 7 7 7 7
3 3 3 3 3 3 3 3 3 2 1 1 2 2 3 3 3 4 3 5 9 9 9 9 8 8 7 6 5 4 3 2 1 1 2 3 3 4 4 4 4 4 5
4 4 3 3 3 3 3 3 3 2 1 0 2 2 2 3 3 4 4 3 4 8 9 9 9 9 8 8 7 6 5 3 2 2 2 2 2 3 3 3 3 3 3
1 2 2 1 2 2 2 2 2 2 1 1 2 2 2 3 4 4 4 4 4 4 7 10 9 9 9 9 9 8 7 6 5 4 4 3 3 4 4 4 3 3 3
6 4 3 2 2 1 1 1 1 1 1 2 2 3 3 3 4 4 5 5 4 4 4 8 10 9 8 10 10 10 9 8 7 6 6 6 5 5 5 5 5 5 5
11 8 6 6 4 3 3 2 2 2 1 1 2 3 4 4 4 5 5 4 4 4 4 5 5 6 9 9 11 12 12 10 9 8 8 8 8 7 7 7 7 7 6
14 12 8 8 7 5 4 3 3 2 2 2 2 3 4 4 5 4 3 3 4 4 4 4 4 4 4 9 11 13 14 13 12 11 11 10 10 9 9 9 9 8 8
14 11 11 8 8 6 7 5 3 2 2 2 2 3 5 5 4 2 2 2 3 2 4 4 4 5 4 4 8 13 15 16 15 14 14 13 12 12 11 11 11 10 10
13 13 12 10 9 8 7 7 5 3 2 1 1 2 3 4 5 4 3 2 2 3 4 4 5 5 5 4 5 10 15 17 18 17 16 15 15 14 14 13 13 12 11
13 13 12 12 10 9 9 7 6 4 3 2 2 1 1 1 3 6 4 3 3 4 5 5 5 5 6 5 7 12 15 17 18 18 18 17 17 16 16 15 14 14 13
12 12 11 11 10 9 9 9 8 7 4 3 2 2 2 2 3 4 7 5 4 3 4 5 5 5 6 6 6 11 17 19 18 18 18 18 18 18 17 17 16 16 15
8 11 10 9 9 8 8 8 7 7 6 5 3 2 2 3 2 3 6 6 6 5 5 4 5 6 6 6 9 16 18 20 21 20 19 18 18 19 19 19 18 18 17
6 8 8 8 7 7 7 7 7 7 6 6 5 3 3 3 3 4 6 7 7 5 5 4 5 5 6 5 7 16 17 21 22 23 21 19 20 20 20 20 20 19 19
4 5 6 6 6 7 7 6 5 5 5 5 6 5 4 4 4 4 4 5 9 7 4 6 4 5 6 5 9 16 10 19 22 23 23 22 22 22 22 22 22 21 20
3 5 5 5 5 6 6 5 4 5 5 5 5 5 4 4 4 4 4 4 5 9 9 4 4 3 4 4 10 7 7 16 21 22 23 24 24 24 24 24 23 23 23
4 5 5 5 5 5 5 5 5 5 5 5 5 6 5 4 5 4 4 4 5 7 10 4 4 5 6 6 11 8 9 18 20 22 23 24 24 25 25 25 25 25 24
4 5 5 6 6 6 6 5 6 6 7 7 6 7 8 7 6 5 5 5 6 6 11 10 6 6 7 8 8 7 7 8 9 19 23 24 25 25 25 26 26 25 25
4 5 5 5 6 7 6 7 8 8 8 9 9 8 9 8 8 6 6 7 7 7 9 14 10 7 8 8 9 10 8 8 8 17 23 24 25 26 26 26 26 25 24
4 5 5 6 7 7 7 8 8 9 9 9 10 11 11 10 11 8 8 9 8 9 8 11 12 8 7 6 8 8 8 8 8 13 20 23 25 26 27 27 26 25 23
4 5 6 6 7 8 9 9 10 11 11 11 11 11 12 11 12 11 11 10 9 10 10 11 12 9 8 7 7 7 8 6 8 8 14 16 19 24 27 28 25 23 22
5 6 7 7 7 7 7 11 12 13 14 14 14 13 13 13 18 17 14 11 10 10 10 11 12 11 9 6 8 6 10 7 8 7 8 9 9 10 12 20 23 23 25
5 6 7 8 9 8 16 20 17 14 15 16 16 15 15 15 16 23 26 25 22 16 13 12 13 14 13 8 7 8 9 9 9 4 7 9 7 10 9 8 18 25 27
6 6 7 8 10 12 19 21 22 17 15 14 15 15 14 13 15 16 20 24 23 25 26 19 18 18 17 11 10 12 11 13 14 6 5 9 7 11 7 11 23 26 27
6 7 8 9 10 12 20 22 23 16 14 14 14 15 16 16 15 18 17 17 17 17 19 16 16 18 17 14 13 16 16 16 16 9 8 13 9 10 7 9 21 26 27
6 7 8 8 10 13 20 22 22 12 12 14 14 14 15 16 22 26 20 18 18 16 20 26 27 27 30 30 24 14 13 14 17 13 9 12 10 7 8 10 14 25 27
7 8 9 8 10 11 18 22 22 10 11 12 12 13 17 19 25 27 19 16 18 17 16 16 20 22 21 21 26 19 14 15 15 13 9 10 9 5 6 7 9 11 16
Wind_Direction
171 170 164 158 156 145 152 154 152 149 76 14 6 358 339 334 325 320 317 319 317 305 288 274 255 241 233 213 204 177 127 82 47 27 21 17 15 18 22 25 28 29 33
174 174 172 173 179 173 167 163 166 166 165 351 329 336 327 322 317 312 306 311 313 310 298 279 265 250 235 218 218 207 197 162 104 9 359 350 354 357 5 10 7 11 16
180 175 176 189 193 165 152 141 140 134 166 257 298 309 311 311 305 301 300 296 301 305 305 293 278 264 245 229 225 215 210 204 215 252 284 300 309 316 322 326 326 331 342
115 144 162 199 157 139 150 155 147 169 211 240 270 288 299 300 292 287 287 287 291 295 301 298 294 281 257 243 236 225 217 216 223 236 254 266 272 276 281 283 284 284 289
37 47 42 37 74 93 118 139 127 161 228 250 266 277 278 275 275 279 275 273 274 283 292 300 304 300 279 254 247 237 229 225 226 232 242 252 259 261 262 263 266 266 265
36 40 40 37 42 44 34 22 34 42 2 319 299 287 273 264 262 258 261 266 269 278 288 297 307 305 294 274 256 249 242 237 234 233 239 246 252 256 256 257 258 257 257
38 40 39 37 35 39 36 34 35 25 14 11 331 312 300 271 267 270 274 282 291 301 305 303 306 307 303 289 274 260 252 248 244 237 236 243 248 251 251 251 252 253 252
37 39 37 36 31 33 34 33 37 28 19 22 352 331 327 329 337 322 303 279 294 313 300 295 293 289 292 294 285 275 266 261 258 250 239 238 244 248 249 249 249 248 248
40 39 37 36 33 34 29 22 21 19 357 354 3 329 323 307 318 315 335 314 283 270 267 266 265 265 268 269 280 279 275 273 268 264 254 241 238 243 247 247 247 245 245
41 40 38 37 35 33 27 19 19 12 5 345 334 305 252 281 301 311 311 309 297 277 276 276 269 264 256 255 258 263 268 269 269 268 266 255 242 240 243 245 245 244 243
38 36 37 37 35 31 26 22 19 19 14 357 336 319 302 260 233 262 292 305 309 282 268 259 256 256 253 246 247 254 260 262 263 264 264 261 249 241 241 243 243 243 241
33 31 32 33 32 28 24 17 18 20 14 5 352 334 312 296 288 266 282 296 290 278 269 253 248 249 245 240 245 252 256 259 260 259 258 256 249 242 241 243 244 243 241
29 22 25 26 25 21 20 15 18 16 9 2 351 334 315 290 286 281 284 292 292 287 266 253 241 245 248 238 244 250 250 254 256 257 255 252 248 243 240 241 245 245 243
31 16 19 21 18 16 15 11 11 5 358 350 344 332 315 303 300 289 281 294 300 294 264 259 255 239 247 245 252 257 249 250 253 255 254 251 248 244 240 240 242 244 243
24 16 14 12 7 5 4 1 357 347 339 334 325 317 310 302 299 290 281 270 276 293 295 267 262 267 263 263 266 263 247 252 253 254 254 252 249 245 241 240 240 241 242
16 8 6 1 355 352 351 348 335 325 324 317 309 307 304 300 296 288 281 272 254 263 278 280 278 283 276 266 267 260 250 258 257 255 254 252 250 246 242 239 239 239 240
6 2 354 348 344 341 338 330 320 315 312 306 302 301 296 295 290 286 282 275 266 256 271 281 274 279 274 271 274 266 259 257 257 255 253 252 249 247 243 239 237 237 238
356 350 344 340 336 334 329 322 315 313 303 301 299 294 290 292 285 283 277 273 270 261 266 280 285 283 272 268 268 268 265 259 252 258 257 254 250 247 244 240 237 235 235
347 347 344 336 331 327 322 314 305 302 298 294 294 292 292 289 287 283 278 276 274 273 266 273 279 277 276 266 270 266 258 259 256 260 262 258 253 248 245 241 236 232 229
350 347 339 330 326 323 317 313 312 308 301 296 293 290 289 285 286 286 282 278 278 277 274 274 277 274 271 267 263 268 269 253 256 252 258 257 254 249 245 242 237 230 225
349 337 330 327 325 319 313 316 314 308 305 302 299 296 293 290 288 287 285 282 278 276 277 277 278 278 270 261 260 257 267 268 259 241 252 253 250 246 240 241 237 229 225
336 330 327 323 320 316 314 315 314 309 305 303 302 302 299 293 290 292 291 289 285 281 280 276 278 276 276 268 266 263 268 271 271 227 230 249 233 244 239 232 237 235 230
330 326 320 318 311 307 311 313 312 308 301 298 297 297 296 296 297 293 290 289 287 283 280 278 276 275 279 278 277 273 266 263 263 242 225 254 231 245 235 236 240 239 236
323 316 312 305 301 302 310 312 311 306 298 294 293 294 293 294 292 291 288 285 282 281 279 276 272 275 277 277 269 270 272 272 270 253 223 256 242 241 230 226 238 239 238
309 303 296 298 299 301 307 308 307 302 296 295 293 290 289 288 288 290 289 286 285 283 284 280 278 278 279 280 277 273 265 260 262 255 224 244 249 237 233 229 230 235 237
296 298 298 297 293 292 298 305 308 300 294 293 290 286 284 284 285 288 286 283 282 282 279 277 276 277 278 279 278 271 268 265 265 261 227 229 239 215 243 231 219 221 231